Location: Bukit Nyuki
(2.5885°N, 113.7476°E)
Time: 14:19:34
(UTC+00:00)

Okean-O - Pass Details

Date: 18 May 2021
Orbit: 638 x 641 km, 98.2° (Epoch: 16 June)

Event Time Altitude Azimuth Distance (km) Brightness Sun altitude
Exits shadow 12:19:10 24° 212° (SSW) 1,330 4.3 -26.5°
Maximum altitude 12:21:06 35° 258° (WSW) 1,029 4.0 -27.0°
Drops below altitude 10° 12:25:08 10° 324° (NW) 2,024 5.9 -27.9°
Sets 12:27:28 0° 333° (NNW) 2,931 6.7 -28.4°
